Language selection

My Weather Profile Weather Topics  | 

West Coast Haida Gwaii - southern half: Past 24 Hour Conditions

 

Sandspit Airport

01:00 PM PST 29 November 2021
Disclaimer

This table is a summary of hourly weather conditions for the past 24 hours.
Please note that these observations might not always be representative of weather conditions over their associated marine area.

Date / Time
(PST)
Wind(knots) Conditions Visibility(km) Pressure(kPa) Air tempC) Relative humidity(%) Dew pointC)
29 November 2021
13:00 S 9 Light Rain 16 100.6 7 95 6
12:00 S 5 Mainly Sunny 16 100.7 6 95 6
11:00 SW 3 Cloudy 16 100.9 6 97 5
10:00 S 4 Light Rain 4 101.0 5 96 4
9:00 SE 11 Cloudy 16 101.2 6 89 4
8:00 SSE 8 Cloudy 16 101.3 5 86 3
7:00 S 5 Cloudy 16 101.5 4 83 2
6:00 SSE 6 Cloudy 16 101.5 4 84 2
5:00 SSE 3 Cloudy 16 101.5 3 85 1
4:00 SW 2 Cloudy 16 101.7 3 91 1
3:00 W 2 Cloudy 16 101.8 3 89 1
2:00 W 6 Cloudy 16 101.9 3 92 1
1:00 WSW 5 Partly Cloudy 16 101.9 2 90 1
0:00 WSW 4 Cloudy 16 101.9 3 88 1
28 November 2021
23:00 WSW 4 Cloudy 16 101.8 3 87 1
22:00 SW 2 Cloudy 16 101.8 2 83 0
21:00 SW 4 Cloudy 16 101.7 3 80 0
20:00 WSW 6 Mostly Cloudy 16 101.7 4 82 1
19:00 SSW 3 Cloudy 16 101.7 4 81 1
18:00 WNW 10 Mostly Cloudy 16 101.6 5 73 0
17:00 WNW 13 Cloudy 16 101.5 5 76 1
16:00 NW 9 Cloudy 16 101.4 5 81 2
15:00 WNW 7 Cloudy 16 101.3 5 80 2
14:00 NW 12 Mostly Cloudy 16 101.3 5 82 3
13:00 NW 12 Mostly Cloudy 16 101.2 6 78 3

Zoom-in to make a selection

Map of Pacific - North Coast marine weather areas Middle Nomad - 46004 South Nomad - 46036 Dixon Entrance Central - 46145 South Moresby - 46147 Nanakwa Shoal - 46181 North Hecate Strait - 46183 North Nomad - 46184 South Hecate Strait - 46185 West Sea Otter - 46204 West Dixon Entrance - 46205 East Dellwood - 46207 West Moresby - 46208 Sartine Island Cape St.James Kindakun Rocks Langara Island Masset Municipal Airport Rose Spit Sandspit Airport Bella Bella Airport Bella Coola Airport Bonilla Island Cathedral Point Cumshewa Island Grey Islet Holland Rock Lucy Islands Lightstation Prince Rupert Airport
Legend:
buoy Buoy
land station Land Station

Pacific - North Coast Area

Another Region

What we are doing

Features

Hello Weather

Hello Weather: our upgraded telephone weather service is here. 1-833-794-3556 or 1-833-79HELLO.

Date modified: